Year,Month,Day,Hour,Minute,Value (Times are PST for temperature in C)
2023,04,18,00,00,6.60
2023,04,18,00,01,6.60
2023,04,18,00,02,6.60
2023,04,18,00,03,6.60
2023,04,18,00,04,6.60
2023,04,18,00,05,6.60
2023,04,18,00,06,6.60
2023,04,18,00,07,6.60
2023,04,18,00,09,6.60
2023,04,18,00,10,6.60
2023,04,18,00,11,6.60
2023,04,18,00,12,6.60
2023,04,18,00,13,6.60
2023,04,18,00,14,6.40
2023,04,18,00,15,6.60
2023,04,18,00,16,6.60
2023,04,18,00,17,6.60
2023,04,18,00,18,6.60
2023,04,18,00,19,6.60
2023,04,18,00,20,6.60
2023,04,18,00,21,6.60
2023,04,18,00,22,6.60
2023,04,18,00,23,6.60
2023,04,18,00,24,6.60
2023,04,18,00,25,6.60
2023,04,18,00,26,6.60
2023,04,18,00,27,6.60
2023,04,18,00,28,6.60
2023,04,18,00,29,6.60
2023,04,18,00,30,6.60
2023,04,18,00,32,6.60
2023,04,18,00,33,6.60
2023,04,18,00,34,6.60
2023,04,18,00,35,6.60
2023,04,18,00,36,6.60
2023,04,18,00,37,6.60
2023,04,18,00,38,6.60
2023,04,18,00,39,6.60
2023,04,18,00,40,6.60
2023,04,18,00,41,6.60
2023,04,18,00,42,6.70
2023,04,18,00,43,6.70
2023,04,18,00,44,6.70
2023,04,18,00,45,6.70
2023,04,18,00,46,6.70
2023,04,18,00,47,6.70
2023,04,18,00,48,6.70
2023,04,18,00,49,6.70
2023,04,18,00,50,6.70
2023,04,18,00,51,6.70
2023,04,18,00,52,6.80
2023,04,18,00,53,6.80
2023,04,18,00,54,6.80
2023,04,18,00,55,6.80
2023,04,18,00,56,6.80
2023,04,18,00,57,6.80
2023,04,18,00,58,6.80
2023,04,18,00,59,6.80
2023,04,18,01,00,6.80
2023,04,18,01,01,6.80
2023,04,18,01,02,6.80
2023,04,18,01,03,6.80
2023,04,18,01,04,6.80
2023,04,18,01,05,6.80
2023,04,18,01,06,6.80
2023,04,18,01,07,6.80
2023,04,18,01,08,6.80
2023,04,18,01,09,6.80
2023,04,18,01,10,6.80
2023,04,18,01,11,6.70
2023,04,18,01,12,6.70
2023,04,18,01,13,6.70
2023,04,18,01,14,6.70
2023,04,18,01,15,6.70
2023,04,18,01,16,6.70
2023,04,18,01,17,6.70
2023,04,18,01,18,6.70
2023,04,18,01,19,6.70
2023,04,18,01,20,6.70
2023,04,18,01,21,6.70
2023,04,18,01,22,6.70
2023,04,18,01,23,6.70
2023,04,18,01,24,6.70
2023,04,18,01,25,6.70
2023,04,18,01,26,6.70
2023,04,18,01,27,6.60
2023,04,18,01,28,6.60
2023,04,18,01,29,6.60
2023,04,18,01,30,6.60
2023,04,18,01,31,6.60
2023,04,18,01,32,6.60
2023,04,18,01,33,6.60
2023,04,18,01,34,6.60
2023,04,18,01,35,6.60
2023,04,18,01,36,6.60
2023,04,18,01,37,6.60
2023,04,18,01,38,6.60
2023,04,18,01,39,6.60
2023,04,18,01,40,6.60
2023,04,18,01,41,6.60
2023,04,18,01,42,6.60
2023,04,18,01,43,6.60
2023,04,18,01,44,6.60
2023,04,18,01,45,6.60
2023,04,18,01,46,6.60
2023,04,18,01,47,6.60
2023,04,18,01,48,6.60
2023,04,18,01,49,6.60
2023,04,18,01,50,6.60
2023,04,18,01,51,6.60
2023,04,18,01,52,6.60
2023,04,18,01,53,6.60
2023,04,18,01,54,6.60
2023,04,18,01,55,6.60
2023,04,18,01,56,6.60
2023,04,18,01,57,6.60
2023,04,18,01,58,6.60
2023,04,18,01,59,6.60
2023,04,18,02,00,6.40
2023,04,18,02,01,6.40
2023,04,18,02,02,6.40
2023,04,18,02,03,6.40
2023,04,18,02,04,6.40
2023,04,18,02,05,6.40
2023,04,18,02,06,6.40
2023,04,18,02,07,6.40
2023,04,18,02,08,6.40
2023,04,18,02,09,6.40
2023,04,18,02,10,6.40
2023,04,18,02,11,6.40
2023,04,18,02,12,6.40
2023,04,18,02,13,6.40
2023,04,18,02,14,6.40
2023,04,18,02,15,6.40
2023,04,18,02,16,6.40
2023,04,18,02,17,6.40
2023,04,18,02,18,6.40
2023,04,18,02,19,6.40
2023,04,18,02,20,6.40
2023,04,18,02,21,6.40
2023,04,18,02,22,6.40
2023,04,18,02,23,6.40
2023,04,18,02,24,6.40
2023,04,18,02,25,6.40
2023,04,18,02,26,6.40
2023,04,18,02,27,6.40
2023,04,18,02,29,6.40
2023,04,18,02,31,6.40
2023,04,18,02,32,6.40
2023,04,18,02,33,6.40
2023,04,18,02,34,6.40
2023,04,18,02,36,6.30
2023,04,18,02,37,6.30
2023,04,18,02,38,6.30
2023,04,18,02,39,6.30
2023,04,18,02,41,6.30
2023,04,18,02,42,6.40
2023,04,18,02,43,6.40
2023,04,18,02,44,6.30
2023,04,18,02,45,6.30
2023,04,18,02,46,6.30
2023,04,18,02,47,6.30
2023,04,18,02,48,6.30
2023,04,18,02,49,6.40
2023,04,18,02,50,6.40
2023,04,18,02,51,6.40
2023,04,18,02,52,6.30
2023,04,18,02,53,6.40
2023,04,18,02,54,6.40
2023,04,18,02,55,6.40
2023,04,18,02,56,6.40
2023,04,18,02,57,6.40
2023,04,18,02,58,6.40
2023,04,18,02,59,6.40
2023,04,18,03,00,6.40
2023,04,18,03,01,6.40
2023,04,18,03,02,6.40
2023,04,18,03,03,6.40
2023,04,18,03,04,6.40
2023,04,18,03,05,6.40
2023,04,18,03,06,6.40
2023,04,18,03,07,6.40
2023,04,18,03,08,6.40
2023,04,18,03,09,6.30
2023,04,18,03,10,6.30
2023,04,18,03,11,6.40
2023,04,18,03,12,6.40
2023,04,18,03,13,6.40
2023,04,18,03,14,6.40
2023,04,18,03,15,6.40
2023,04,18,03,16,6.30
2023,04,18,03,17,6.30
2023,04,18,03,18,6.30
2023,04,18,03,19,6.30
2023,04,18,03,20,6.30
2023,04,18,03,21,6.30
2023,04,18,03,22,6.30
2023,04,18,03,23,6.30
2023,04,18,03,24,6.30
2023,04,18,03,25,6.30
2023,04,18,03,26,6.30
2023,04,18,03,27,6.30
2023,04,18,03,28,6.40
2023,04,18,03,29,6.30
2023,04,18,03,30,6.30
2023,04,18,03,31,6.20
2023,04,18,03,32,6.20
2023,04,18,03,33,6.20
2023,04,18,03,34,6.20
2023,04,18,03,35,6.20
2023,04,18,03,36,6.20
2023,04,18,03,37,6.20
2023,04,18,03,38,6.20
2023,04,18,03,39,6.20
2023,04,18,03,40,6.20
2023,04,18,03,41,6.20
2023,04,18,03,42,6.20
2023,04,18,03,43,6.20
2023,04,18,03,44,6.20
2023,04,18,03,45,6.20
2023,04,18,03,46,6.20
2023,04,18,03,47,6.20
2023,04,18,03,48,6.20
2023,04,18,03,49,6.20
2023,04,18,03,50,6.20
2023,04,18,03,51,6.20
2023,04,18,03,52,6.20
2023,04,18,03,53,6.20
2023,04,18,03,54,6.20
2023,04,18,03,55,6.20
2023,04,18,03,56,6.30
2023,04,18,03,57,6.30
2023,04,18,03,58,6.30
2023,04,18,03,59,6.30
2023,04,18,04,00,6.30
2023,04,18,04,01,6.30
2023,04,18,04,02,6.30
2023,04,18,04,03,6.30
2023,04,18,04,04,6.40
2023,04,18,04,05,6.40
2023,04,18,04,06,6.40
2023,04,18,04,07,6.40
2023,04,18,04,08,6.40
2023,04,18,04,09,6.40
2023,04,18,04,10,6.40
2023,04,18,04,11,6.40
2023,04,18,04,12,6.40
2023,04,18,04,13,6.30
2023,04,18,04,14,6.30
2023,04,18,04,15,6.30
2023,04,18,04,16,6.30
2023,04,18,04,17,6.30
2023,04,18,04,18,6.30
2023,04,18,04,19,6.30
2023,04,18,04,20,6.40
2023,04,18,04,21,6.40
2023,04,18,04,22,6.40
2023,04,18,04,23,6.40
2023,04,18,04,24,6.40
2023,04,18,04,25,6.40
2023,04,18,04,26,6.40
2023,04,18,04,27,6.40
2023,04,18,04,28,6.40
2023,04,18,04,29,6.40
2023,04,18,04,30,6.60
2023,04,18,04,31,6.60
2023,04,18,04,32,6.60
2023,04,18,04,33,6.40
2023,04,18,04,34,6.60
2023,04,18,04,35,6.60
2023,04,18,04,36,6.60
2023,04,18,04,37,6.60
2023,04,18,04,38,6.60
2023,04,18,04,39,6.60
2023,04,18,04,40,6.60
2023,04,18,04,41,6.60
2023,04,18,04,42,6.60
2023,04,18,04,44,6.60
2023,04,18,04,45,6.60
2023,04,18,04,46,6.60
2023,04,18,04,47,6.60
2023,04,18,04,48,6.40
2023,04,18,04,49,6.40
2023,04,18,04,50,6.40
2023,04,18,04,51,6.40
2023,04,18,04,52,6.40
2023,04,18,04,53,6.40
2023,04,18,04,54,6.40
2023,04,18,04,55,6.40
2023,04,18,04,56,6.40
2023,04,18,04,57,6.40
2023,04,18,04,58,6.40
2023,04,18,04,59,6.40
2023,04,18,05,00,6.40
2023,04,18,05,01,6.40
2023,04,18,05,02,6.60
2023,04,18,05,03,6.60
2023,04,18,05,04,6.60
2023,04,18,05,05,6.60
2023,04,18,05,06,6.60
2023,04,18,05,07,6.60
2023,04,18,05,08,6.60
2023,04,18,05,09,6.60
2023,04,18,05,10,6.60
2023,04,18,05,11,6.60
2023,04,18,05,12,6.60
2023,04,18,05,13,6.60
2023,04,18,05,14,6.60
2023,04,18,05,15,6.60
2023,04,18,05,16,6.60
2023,04,18,05,17,6.60
2023,04,18,05,18,6.60
2023,04,18,05,19,6.60
2023,04,18,05,20,6.60
2023,04,18,05,21,6.60
2023,04,18,05,22,6.40
2023,04,18,05,23,6.40
2023,04,18,05,24,6.40
2023,04,18,05,25,6.40
2023,04,18,05,26,6.40
2023,04,18,05,27,6.40
2023,04,18,05,28,6.40
2023,04,18,05,29,6.40
2023,04,18,05,30,6.30
2023,04,18,05,31,6.30
2023,04,18,05,32,6.20
2023,04,18,05,33,6.20
2023,04,18,05,34,6.10
2023,04,18,05,35,6.00
2023,04,18,05,36,6.00
2023,04,18,05,37,5.90
2023,04,18,05,38,5.90
2023,04,18,05,39,5.90
2023,04,18,05,40,5.90
2023,04,18,05,41,5.90
2023,04,18,05,42,5.90
2023,04,18,05,43,5.90
2023,04,18,05,44,5.90
2023,04,18,05,45,5.80
2023,04,18,05,46,5.80
2023,04,18,05,47,5.80
2023,04,18,05,48,5.80
2023,04,18,05,49,5.80
2023,04,18,05,50,5.80
2023,04,18,05,51,5.80
2023,04,18,05,52,5.80
2023,04,18,05,53,5.80
2023,04,18,05,54,5.80
2023,04,18,05,55,5.80
2023,04,18,05,56,5.80
2023,04,18,05,57,5.80
2023,04,18,05,58,5.80
2023,04,18,05,59,5.80
2023,04,18,06,00,5.80
2023,04,18,06,01,5.80
2023,04,18,06,02,5.80
2023,04,18,06,03,5.80
2023,04,18,06,04,5.80
2023,04,18,06,05,5.80
2023,04,18,06,06,5.80
2023,04,18,06,07,5.80
2023,04,18,06,08,5.80
2023,04,18,06,09,5.80
2023,04,18,06,10,5.80
2023,04,18,06,11,5.80
2023,04,18,06,12,5.80
2023,04,18,06,13,5.80
2023,04,18,06,14,5.80
2023,04,18,06,15,5.70
2023,04,18,06,16,5.70
2023,04,18,06,17,5.70
2023,04,18,06,18,5.80
2023,04,18,06,19,5.80
2023,04,18,06,20,5.80
2023,04,18,06,21,5.80
2023,04,18,06,22,5.80
2023,04,18,06,23,5.80
2023,04,18,06,24,5.80
2023,04,18,06,25,5.80
2023,04,18,06,26,5.80
2023,04,18,06,27,5.80
2023,04,18,06,28,5.90
2023,04,18,06,29,5.90
2023,04,18,06,30,5.90
2023,04,18,06,32,5.90
2023,04,18,06,33,5.90
2023,04,18,06,34,5.90
2023,04,18,06,35,6.00
2023,04,18,06,36,6.00
2023,04,18,06,37,6.00
2023,04,18,06,38,6.00
2023,04,18,06,39,6.00
2023,04,18,06,40,6.10
2023,04,18,06,41,6.10
2023,04,18,06,42,6.10
2023,04,18,06,43,6.10
2023,04,18,06,44,6.10
2023,04,18,06,45,6.10
2023,04,18,06,46,6.20
2023,04,18,06,47,6.20
2023,04,18,06,48,6.20
2023,04,18,06,49,6.20
2023,04,18,06,50,6.20
2023,04,18,06,51,6.10
2023,04,18,06,52,6.10
2023,04,18,06,53,6.10
2023,04,18,06,54,6.10
2023,04,18,06,55,6.10
2023,04,18,06,56,6.10
2023,04,18,06,57,6.10
2023,04,18,06,58,6.10
2023,04,18,06,59,6.10
2023,04,18,07,00,6.20
2023,04,18,07,01,6.20
2023,04,18,07,02,6.20
2023,04,18,07,03,6.20
2023,04,18,07,04,6.20
2023,04,18,07,05,6.20
2023,04,18,07,06,6.20
2023,04,18,07,07,6.20
2023,04,18,07,08,6.20
2023,04,18,07,09,6.20
2023,04,18,07,10,6.20
2023,04,18,07,11,6.20
2023,04,18,07,12,6.20
2023,04,18,07,13,6.10
2023,04,18,07,14,6.00
2023,04,18,07,15,6.00
2023,04,18,07,16,5.90
2023,04,18,07,17,5.80
2023,04,18,07,18,5.80
2023,04,18,07,19,5.70
2023,04,18,07,20,5.70
2023,04,18,07,21,5.70
2023,04,18,07,22,5.60
2023,04,18,07,23,5.60
2023,04,18,07,24,5.50
2023,04,18,07,25,5.50
2023,04,18,07,26,5.50
2023,04,18,07,27,5.50
2023,04,18,07,28,5.40
2023,04,18,07,29,5.40
2023,04,18,07,30,5.40
2023,04,18,07,31,5.40
2023,04,18,07,32,5.40
2023,04,18,07,33,5.40
2023,04,18,07,34,5.40
2023,04,18,07,35,5.40
2023,04,18,07,36,5.40
2023,04,18,07,37,5.40
2023,04,18,07,38,5.40
2023,04,18,07,39,5.30
2023,04,18,07,40,5.30
2023,04,18,07,41,5.30
2023,04,18,07,42,5.30
2023,04,18,07,43,5.30
2023,04,18,07,44,5.30
2023,04,18,07,45,5.30
2023,04,18,07,46,5.30
2023,04,18,07,47,5.20
2023,04,18,07,48,5.20
2023,04,18,07,49,5.20
2023,04,18,07,50,5.20
2023,04,18,07,51,5.20
2023,04,18,07,52,5.20
2023,04,18,07,53,5.20
2023,04,18,07,54,5.20
2023,04,18,07,55,5.20
2023,04,18,07,57,5.10
2023,04,18,07,58,5.10
2023,04,18,07,59,5.10
2023,04,18,08,01,5.10
2023,04,18,08,02,5.10
2023,04,18,08,03,5.10
2023,04,18,08,04,5.10
2023,04,18,08,06,5.10
2023,04,18,08,07,5.10
2023,04,18,08,08,5.20
2023,04,18,08,09,5.20
2023,04,18,08,10,5.20
2023,04,18,08,11,5.20
2023,04,18,08,12,5.20
2023,04,18,08,13,5.20
2023,04,18,08,14,5.30
2023,04,18,08,15,5.30
2023,04,18,08,16,5.30
2023,04,18,08,17,5.30
2023,04,18,08,18,5.30
2023,04,18,08,19,5.30
2023,04,18,08,20,5.40
2023,04,18,08,21,5.40
2023,04,18,08,22,5.40
2023,04,18,08,23,5.50
2023,04,18,08,24,5.50
2023,04,18,08,25,5.50
2023,04,18,08,26,5.50
2023,04,18,08,27,5.60
2023,04,18,08,28,5.60
2023,04,18,08,29,5.60
2023,04,18,08,30,5.70
2023,04,18,08,31,5.70
2023,04,18,08,32,5.70
2023,04,18,08,33,5.70
2023,04,18,08,34,5.70
2023,04,18,08,35,5.70
2023,04,18,08,36,5.70
2023,04,18,08,37,5.70
2023,04,18,08,38,5.80
2023,04,18,08,39,5.80
2023,04,18,08,40,5.80
2023,04,18,08,41,5.90
2023,04,18,08,42,5.90
2023,04,18,08,43,5.90
2023,04,18,08,44,5.90
2023,04,18,08,45,5.90
2023,04,18,08,46,5.90
2023,04,18,08,47,5.90
2023,04,18,08,48,5.90
2023,04,18,08,49,5.90
2023,04,18,08,50,5.90
2023,04,18,08,51,5.90
2023,04,18,08,52,5.80
2023,04,18,09,29,6.00
2023,04,18,09,30,6.00
2023,04,18,09,31,6.00
2023,04,18,09,32,6.10
2023,04,18,09,33,6.10
2023,04,18,09,34,6.10
2023,04,18,09,35,6.10
2023,04,18,09,36,6.20
2023,04,18,09,37,6.20
2023,04,18,09,38,6.20
2023,04,18,09,39,6.20
2023,04,18,09,40,6.20
2023,04,18,09,41,6.20
2023,04,18,09,42,6.20
2023,04,18,09,43,6.30
2023,04,18,09,44,6.30
2023,04,18,09,45,6.30
2023,04,18,09,46,6.30
2023,04,18,09,47,6.40
2023,04,18,09,48,6.40
2023,04,18,09,49,6.40
2023,04,18,09,50,6.40
2023,04,18,09,51,6.40
2023,04,18,09,52,6.40
2023,04,18,09,53,6.40
2023,04,18,09,54,6.40
2023,04,18,09,55,6.40
2023,04,18,09,56,6.60
2023,04,18,09,57,6.60
2023,04,18,09,58,6.70
2023,04,18,09,59,6.80
2023,04,18,10,01,6.90
2023,04,18,10,03,7.10
2023,04,18,10,04,7.10
2023,04,18,10,06,7.30
2023,04,18,10,07,7.30
2023,04,18,10,08,7.30
2023,04,18,10,09,7.30
2023,04,18,10,29,6.80
2023,04,18,10,30,6.80
2023,04,18,10,31,6.80
2023,04,18,10,32,6.80
2023,04,18,10,33,6.80
2023,04,18,10,34,6.80
2023,04,18,10,35,6.80
2023,04,18,10,36,6.80
2023,04,18,10,37,6.90
2023,04,18,10,38,7.00
2023,04,18,10,39,7.00
2023,04,18,10,40,7.10
2023,04,18,10,41,7.10
2023,04,18,10,42,7.20
2023,04,18,10,43,7.20
2023,04,18,10,44,7.20
2023,04,18,10,45,7.20
2023,04,18,10,46,7.30
2023,04,18,10,47,7.30
2023,04,18,10,48,7.30
2023,04,18,10,49,7.30
2023,04,18,10,50,7.40
2023,04,18,10,51,7.40
2023,04,18,10,52,7.50
2023,04,18,10,53,7.60
2023,04,18,10,54,7.60
2023,04,18,10,55,7.70
2023,04,18,10,56,7.80
2023,04,18,10,57,7.80
2023,04,18,10,58,7.80
2023,04,18,10,59,7.90
2023,04,18,11,01,8.00
2023,04,18,11,02,8.00
2023,04,18,11,03,8.00
2023,04,18,11,04,8.00
2023,04,18,11,06,8.20
2023,04,18,11,07,8.20
2023,04,18,11,08,8.20
2023,04,18,11,09,8.20
2023,04,18,11,10,8.20
2023,04,18,11,11,8.30
2023,04,18,11,12,8.40
2023,04,18,11,13,8.40
2023,04,18,11,14,8.50
2023,04,18,11,15,8.50
2023,04,18,11,16,8.50
2023,04,18,11,17,8.60
2023,04,18,11,18,8.60
2023,04,18,11,19,8.70
2023,04,18,11,20,8.70
2023,04,18,11,21,8.70
2023,04,18,11,22,8.70
2023,04,18,11,23,8.70
2023,04,18,11,24,8.70
2023,04,18,11,25,8.70
2023,04,18,11,26,8.70
2023,04,18,11,27,8.70
2023,04,18,11,28,8.70
2023,04,18,11,29,8.70
2023,04,18,11,30,8.70
2023,04,18,11,31,8.70
2023,04,18,11,32,8.70
2023,04,18,11,33,8.70
2023,04,18,11,34,8.70
2023,04,18,11,35,8.80
2023,04,18,11,36,8.80
2023,04,18,11,37,8.90
2023,04,18,11,38,8.90
2023,04,18,11,39,9.00
2023,04,18,11,40,9.10
2023,04,18,11,41,9.20
2023,04,18,11,42,9.20
2023,04,18,11,43,9.30
2023,04,18,11,44,9.40
2023,04,18,11,45,9.50
2023,04,18,11,46,9.60
2023,04,18,11,47,9.70
2023,04,18,11,48,9.70
2023,04,18,11,49,9.80
2023,04,18,11,50,9.90
2023,04,18,11,51,9.90
2023,04,18,11,52,9.90
2023,04,18,11,53,9.90
2023,04,18,11,54,9.90
2023,04,18,11,55,9.90
2023,04,18,11,56,9.90
2023,04,18,11,57,9.90
2023,04,18,11,58,9.90
2023,04,18,11,59,9.90
2023,04,18,12,00,9.90
2023,04,18,12,01,9.80
2023,04,18,12,02,9.80
2023,04,18,12,03,9.70
2023,04,18,12,04,9.70
2023,04,18,12,05,9.60
2023,04,18,12,06,9.50
2023,04,18,12,07,9.50
2023,04,18,12,08,9.50
2023,04,18,12,09,9.50
2023,04,18,12,10,9.40
2023,04,18,12,11,9.40
2023,04,18,12,12,9.50
2023,04,18,12,13,9.50
2023,04,18,12,14,9.60
2023,04,18,12,15,9.60
2023,04,18,12,16,9.60
2023,04,18,12,17,9.60
2023,04,18,12,18,9.60
2023,04,18,12,19,9.60
2023,04,18,12,20,9.60
2023,04,18,12,21,9.60
2023,04,18,12,22,9.60
2023,04,18,12,23,9.60
2023,04,18,12,24,9.60
2023,04,18,12,25,9.60
2023,04,18,12,26,9.50
2023,04,18,12,27,9.40
2023,04,18,12,28,9.40
2023,04,18,12,29,9.30
2023,04,18,12,30,9.30
2023,04,18,12,32,9.20
2023,04,18,12,33,9.20
2023,04,18,12,34,9.20
2023,04,18,12,35,9.20
2023,04,18,12,36,9.20
2023,04,18,12,37,9.10
2023,04,18,12,38,9.10
2023,04,18,12,39,9.00
2023,04,18,12,40,9.00
2023,04,18,12,41,9.00
2023,04,18,12,42,9.00
2023,04,18,12,43,9.00
2023,04,18,12,44,9.00
2023,04,18,12,45,8.90
2023,04,18,12,46,8.90
2023,04,18,12,47,8.80
2023,04,18,12,48,8.80
2023,04,18,12,49,8.80
2023,04,18,12,50,8.70
2023,04,18,12,51,8.70
2023,04,18,12,52,8.70
2023,04,18,12,53,8.70
2023,04,18,12,54,8.70
2023,04,18,12,55,8.70
2023,04,18,12,56,8.70
2023,04,18,12,57,8.70
2023,04,18,12,58,8.70
2023,04,18,12,59,8.70
2023,04,18,13,00,8.70
2023,04,18,13,01,8.70
2023,04,18,13,02,8.70
2023,04,18,13,03,8.70
2023,04,18,13,04,8.70
2023,04,18,13,05,8.70
2023,04,18,13,06,8.70
2023,04,18,13,07,8.70
2023,04,18,13,08,8.70
2023,04,18,13,09,8.70
2023,04,18,13,10,8.70
2023,04,18,13,11,8.70
2023,04,18,13,12,8.70
2023,04,18,13,13,8.70
2023,04,18,13,14,8.80
2023,04,18,13,15,8.90
2023,04,18,13,16,8.90
2023,04,18,13,17,9.00
2023,04,18,13,18,9.00
2023,04,18,13,19,9.10
2023,04,18,13,20,9.20
2023,04,18,13,21,9.20
2023,04,18,13,22,9.20
2023,04,18,13,23,9.20
2023,04,18,13,24,9.20
2023,04,18,13,25,9.20
2023,04,18,13,26,9.20
2023,04,18,13,27,9.20
2023,04,18,13,28,9.20
2023,04,18,13,29,9.20
2023,04,18,13,30,9.10
2023,04,18,13,31,9.00
2023,04,18,13,32,9.00
2023,04,18,13,33,9.00
2023,04,18,13,34,8.90
2023,04,18,13,35,8.90
2023,04,18,13,36,8.90
2023,04,18,13,37,8.80
2023,04,18,13,38,8.80
2023,04,18,13,39,8.80
2023,04,18,13,40,8.80
2023,04,18,13,41,8.80
2023,04,18,13,42,8.80
2023,04,18,13,43,8.80
2023,04,18,13,44,8.80
2023,04,18,13,45,8.80
2023,04,18,13,46,8.80
2023,04,18,13,47,8.80
2023,04,18,13,48,8.80
2023,04,18,13,49,8.80
2023,04,18,13,50,8.80
2023,04,18,13,51,8.70
2023,04,18,13,52,8.70
2023,04,18,13,53,8.70
2023,04,18,13,54,8.70
2023,04,18,13,55,8.70
2023,04,18,13,56,8.80
2023,04,18,13,57,8.80
2023,04,18,13,58,8.70
2023,04,18,13,59,8.70
2023,04,18,14,00,8.70
2023,04,18,14,01,8.70
2023,04,18,14,02,8.70
2023,04,18,14,03,8.70
2023,04,18,14,04,8.70
2023,04,18,14,05,8.70
2023,04,18,14,06,8.70
2023,04,18,14,07,8.60
2023,04,18,14,08,8.60
2023,04,18,14,09,8.60
2023,04,18,14,10,8.60
2023,04,18,14,11,8.50
2023,04,18,14,12,8.50
2023,04,18,14,13,8.50
2023,04,18,14,14,8.60
2023,04,18,14,15,8.60
2023,04,18,14,16,8.60
2023,04,18,14,17,8.70
2023,04,18,14,18,8.70
2023,04,18,14,19,8.70
2023,04,18,14,20,8.70
2023,04,18,14,21,8.70
2023,04,18,14,22,8.70
2023,04,18,14,23,8.80
2023,04,18,14,24,8.80
2023,04,18,14,25,8.80
2023,04,18,14,26,8.80
2023,04,18,14,27,8.80
2023,04,18,14,28,8.80
2023,04,18,14,29,8.80
2023,04,18,14,30,8.80
2023,04,18,14,31,8.80
2023,04,18,14,32,8.80
2023,04,18,14,33,8.80
2023,04,18,14,34,8.80
2023,04,18,14,35,8.80
2023,04,18,14,36,8.80
2023,04,18,14,37,8.80
2023,04,18,14,38,8.80
2023,04,18,14,39,8.90
2023,04,18,14,40,8.90
2023,04,18,14,41,9.00
2023,04,18,14,42,9.00
2023,04,18,14,43,9.00
2023,04,18,14,44,9.10
2023,04,18,14,45,9.10
2023,04,18,14,46,9.20
2023,04,18,14,47,9.20
2023,04,18,14,48,9.20
2023,04,18,14,49,9.20
2023,04,18,14,50,9.20
2023,04,18,14,51,9.30
2023,04,18,14,52,9.30
2023,04,18,14,53,9.30
2023,04,18,14,54,9.30
2023,04,18,14,55,9.30
2023,04,18,14,56,9.30
2023,04,18,14,57,9.30
2023,04,18,14,58,9.30
2023,04,18,14,59,9.20
2023,04,18,15,00,9.20
2023,04,18,15,01,9.20
2023,04,18,15,02,9.20
2023,04,18,15,03,9.20
2023,04,18,15,04,9.20
2023,04,18,15,05,9.20
2023,04,18,15,06,9.20
2023,04,18,15,07,9.20
2023,04,18,15,08,9.20
2023,04,18,15,09,9.20
2023,04,18,15,11,9.20
2023,04,18,15,12,9.20
2023,04,18,15,13,9.20
2023,04,18,15,14,9.20
2023,04,18,15,16,9.30
2023,04,18,15,17,9.30
2023,04,18,15,18,9.40
2023,04,18,15,19,9.50
2023,04,18,15,20,9.50
2023,04,18,15,21,9.60
2023,04,18,15,22,9.70
2023,04,18,15,30,10.10
2023,04,18,15,31,10.20
2023,04,18,15,32,10.40
2023,04,18,15,33,10.40
2023,04,18,15,34,10.60
2023,04,18,15,35,10.60
2023,04,18,15,36,10.70
2023,04,18,15,37,10.80
2023,04,18,15,38,10.90
2023,04,18,15,39,10.90
2023,04,18,15,40,10.90
2023,04,18,15,41,11.10
2023,04,18,15,42,11.10
2023,04,18,15,43,11.20
2023,04,18,15,44,11.30
2023,04,18,15,45,11.30
2023,04,18,15,46,11.40
2023,04,18,15,47,11.40
2023,04,18,15,48,11.40
2023,04,18,15,49,11.40
2023,04,18,15,50,11.40
2023,04,18,15,51,11.30
2023,04,18,15,52,11.30
2023,04,18,15,53,11.30
2023,04,18,15,54,11.20
2023,04,18,15,55,11.20
2023,04,18,15,56,11.20
2023,04,18,15,57,11.20
2023,04,18,15,58,11.20
2023,04,18,15,59,11.10
2023,04,18,16,00,11.10
2023,04,18,16,01,11.10
2023,04,18,16,02,11.10
2023,04,18,16,03,11.10
2023,04,18,16,04,11.10
2023,04,18,16,05,10.90
2023,04,18,16,06,10.90
2023,04,18,16,07,10.90
2023,04,18,16,08,10.90
2023,04,18,16,09,10.90
2023,04,18,16,10,10.90
2023,04,18,16,11,10.90
2023,04,18,16,12,10.90
2023,04,18,16,13,10.80
2023,04,18,16,14,10.80
2023,04,18,16,15,10.80
2023,04,18,16,16,10.80
2023,04,18,16,17,10.90
2023,04,18,16,18,10.90
2023,04,18,16,19,10.90
2023,04,18,16,20,11.10
2023,04,18,16,21,11.10
2023,04,18,16,22,11.10
2023,04,18,16,23,11.20
2023,04,18,16,24,11.30
2023,04,18,16,25,11.30
2023,04,18,16,26,11.30
2023,04,18,16,27,11.40
2023,04,18,16,28,11.40
2023,04,18,16,29,11.40
2023,04,18,16,30,11.40
2023,04,18,16,31,11.40
2023,04,18,16,32,11.40
2023,04,18,16,33,11.30
2023,04,18,16,34,11.30
2023,04,18,16,35,11.20
2023,04,18,16,36,11.20
2023,04,18,16,37,11.10
2023,04,18,16,38,11.10
2023,04,18,16,39,11.10
2023,04,18,16,40,11.10
2023,04,18,16,41,10.90
2023,04,18,16,42,10.90
2023,04,18,16,43,10.90
2023,04,18,16,44,10.90
2023,04,18,16,45,10.90
2023,04,18,16,46,10.90
2023,04,18,16,47,10.90
2023,04,18,16,48,10.80
2023,04,18,16,49,10.80
2023,04,18,16,50,10.80
2023,04,18,16,51,10.70
2023,04,18,16,52,10.70
2023,04,18,16,53,10.70
2023,04,18,16,54,10.80
2023,04,18,16,55,10.80
2023,04,18,16,56,10.80
2023,04,18,16,57,10.70
2023,04,18,16,58,10.70
2023,04,18,16,59,10.70
2023,04,18,17,00,10.60
2023,04,18,17,01,10.60
2023,04,18,17,02,10.60
2023,04,18,17,03,10.40
2023,04,18,17,04,10.40
2023,04,18,17,05,10.40
2023,04,18,17,06,10.30
2023,04,18,17,07,10.30
2023,04,18,17,08,10.30
2023,04,18,17,09,10.20
2023,04,18,17,10,10.20
2023,04,18,17,11,10.20
2023,04,18,17,12,10.20
2023,04,18,17,13,10.20
2023,04,18,17,14,10.20
2023,04,18,17,15,10.20
2023,04,18,17,16,10.20
2023,04,18,17,17,10.10
2023,04,18,17,18,10.10
2023,04,18,17,19,10.20
2023,04,18,17,20,10.20
2023,04,18,17,21,10.10
2023,04,18,17,22,10.10
2023,04,18,17,23,9.90
2023,04,18,17,24,9.90
2023,04,18,17,25,9.80
2023,04,18,17,26,9.70
2023,04,18,17,27,9.70
2023,04,18,17,28,9.70
2023,04,18,17,29,9.70
2023,04,18,17,30,9.70
2023,04,18,17,31,9.60
2023,04,18,17,32,9.60
2023,04,18,17,33,9.60
2023,04,18,17,34,9.60
2023,04,18,17,35,9.70
2023,04,18,17,36,9.70
2023,04,18,17,37,9.70
2023,04,18,17,38,9.70
2023,04,18,17,39,9.70
2023,04,18,17,40,9.70
2023,04,18,17,41,9.70
2023,04,18,17,42,9.80
2023,04,18,17,43,9.80
2023,04,18,17,44,9.90
2023,04,18,17,45,9.90
2023,04,18,17,46,9.90
2023,04,18,17,47,10.10
2023,04,18,17,48,10.10
2023,04,18,17,49,10.20
2023,04,18,17,50,10.20
2023,04,18,17,51,10.40
2023,04,18,17,52,10.40
2023,04,18,17,53,10.60
2023,04,18,17,54,10.60
2023,04,18,17,55,10.70
2023,04,18,17,56,10.90
2023,04,18,17,57,10.90
2023,04,18,17,58,10.90
2023,04,18,17,59,11.10
2023,04,18,18,00,11.10
2023,04,18,18,01,11.10
2023,04,18,18,02,11.10
2023,04,18,18,03,11.10
2023,04,18,18,04,11.10
2023,04,18,18,05,11.10
2023,04,18,18,06,11.10
2023,04,18,18,07,11.10
2023,04,18,18,08,11.10
2023,04,18,18,09,11.10
2023,04,18,18,10,11.10
2023,04,18,18,11,11.10
2023,04,18,18,12,11.20
2023,04,18,18,13,11.20
2023,04,18,18,14,11.30
2023,04,18,18,15,11.30
2023,04,18,18,16,11.30
2023,04,18,18,17,11.40
2023,04,18,18,18,11.40
2023,04,18,18,19,11.40
2023,04,18,18,20,11.40
2023,04,18,18,21,11.60
2023,04,18,18,22,11.60
2023,04,18,18,23,11.60
2023,04,18,18,24,11.60
2023,04,18,18,25,11.40
2023,04,18,18,26,11.40
2023,04,18,18,27,11.40
2023,04,18,18,28,11.40
2023,04,18,18,29,11.40
2023,04,18,18,30,11.30
2023,04,18,18,32,11.20
2023,04,18,18,33,11.10
2023,04,18,18,34,11.10
2023,04,18,18,35,10.90
2023,04,18,18,36,10.90
2023,04,18,18,37,10.90
2023,04,18,18,38,10.80
2023,04,18,18,39,10.80
2023,04,18,18,40,10.70
2023,04,18,18,41,10.60
2023,04,18,18,42,10.60
2023,04,18,18,43,10.60
2023,04,18,18,44,10.40
2023,04,18,18,45,10.40
2023,04,18,18,46,10.30
2023,04,18,18,47,10.20
2023,04,18,18,48,10.10
2023,04,18,18,49,10.10
2023,04,18,18,50,10.10
2023,04,18,18,51,9.90
2023,04,18,18,52,9.90
2023,04,18,18,54,9.90
2023,04,18,18,55,9.80
2023,04,18,18,56,9.70
2023,04,18,18,58,9.70
2023,04,18,18,59,9.60
2023,04,18,19,00,9.60
2023,04,18,19,02,9.40
2023,04,18,19,03,9.40
2023,04,18,19,04,9.40
2023,04,18,19,06,9.30
2023,04,18,19,07,9.30
2023,04,18,19,08,9.30
2023,04,18,19,09,9.30
2023,04,18,19,10,9.30
2023,04,18,19,11,9.20
2023,04,18,19,12,9.20
2023,04,18,19,13,9.20
2023,04,18,19,14,9.20
2023,04,18,19,15,9.20
2023,04,18,19,16,9.20
2023,04,18,19,17,9.20
2023,04,18,19,18,9.20
2023,04,18,19,19,9.20
2023,04,18,19,20,9.20
2023,04,18,19,21,9.20
2023,04,18,19,22,9.20
2023,04,18,19,23,9.20
2023,04,18,19,24,9.20